Regional Weather Roundup
Issued by NWS Charleston, WV

Home | Current Version | Previous Version | Graphics & Text | Print | Product List | Glossary On
Versions: 1 2 3 4 5 6 7 8 9 10 11 12 13 14 15 16 17 18 19 20 21 22 23 24 25 26 27 28 29 30 31 32 33 34 35 36 37 38 39 40 41 42 43 44 45 46 47 48 49 50
000
ASUS41 KRLX 312210
RWRRLX
West Virginia Regional Weather Roundup
National Weather Service Charleston WV
500 PM EST SAT JAN 31 2015

Note: "fair" indicates few or no clouds below 12,000 feet with no
significant weather and/or obstructions to visibility.

WVZ003-312300-
Northern Panhandle of West Virginia

CITY           SKY/WX    TMP DP  RH WIND       PRES   REMARKS
WHEELING       CLEAR     28  15  58 W8        30.24S
$$

WVZ009-312300-
Northwest West Virginia

CITY           SKY/WX    TMP DP  RH WIND       PRES   REMARKS
PARKERSBURG    PTCLDY    33  18  53 SW6       30.31S
$$

WVZ006-312300-
Western West Virginia

CITY           SKY/WX    TMP DP  RH WIND       PRES   REMARKS
HUNTINGTON     CLOUDY    38  16  40 SW3       30.28F
$$

WVZ015-312300-
West Central West Virginia

CITY           SKY/WX    TMP DP  RH WIND       PRES   REMARKS
CHARLESTON     MOCLDY    37  15  40 SW8       30.28S
$$

WVZ022-031-312300-
North Central West Virginia

CITY           SKY/WX    TMP DP  RH WIND       PRES   REMARKS
CLARKSBURG     MOCLDY    30  15  53 SW8       30.26S
MORGANTOWN     CLEAR     29  11  47 SW8       30.26S
$$

WVZ025-035-042-045-312300-
Southern West Virginia

CITY           SKY/WX    TMP DP  RH WIND       PRES   REMARKS
BECKLEY        PTCLDY    33  10  38 W8        30.23R
LOGAN            N/A     36  14  41 CALM      30.26S
BLUEFIELD      PTCLDY    36   4  26 W7        30.22R
LEWISBURG      PTCLDY    36   3  25 W6        30.22S
$$

WVZ047-312300-
Northern Mountains of West Virginia

CITY           SKY/WX    TMP DP  RH WIND       PRES   REMARKS
ELKINS         CLEAR     29   8  41 CALM      30.23S
$$

WVZ052-312300-
Eastern Panhandle of West Virginia

CITY           SKY/WX    TMP DP  RH WIND       PRES   REMARKS
MARTINSBURG    CLEAR     34   9  35 W8        30.24S
PETERSBURG     CLEAR     36  -2  19 SW6       30.24R
$$



USA.gov is the U.S. government's official web portal to all federal, state and local government web resources and services.